DW7229 Weather Reports


Display with metric or nautical units.
time (UTC)temp
F
wind
direction
speed
MPH
gust
MPH
rain 1hr
in
rain 24hr
in
rain mn
in
humidity
%
barometer
mb
20260905021028 65 0.0 0.0 0.00 0.00 0.00 73 1009.1
20260905020032 65 0.0 0.0 0.00 0.00 0.00 74 1009.0
20260905015017 66 0.0 0.0 0.00 0.00 0.00 74 1009.0
20260905014020 66 0.0 0.0 0.00 0.00 0.00 72 1009.1
20260905013044 66 0.0 0.0 0.00 0.00 0.00 72 1009.2
20260905012027 66 0.0 0.0 0.00 0.00 0.00 72 1009.2
20260905011030 67 0.0 0.0 0.00 0.00 0.00 72 1009.2
20260905010015 67 0.0 0.0 0.00 0.00 0.00 73 1009.1
20260905005019 68 0.0 0.0 0.00 0.00 0.00 73 1009.0
20260905004022 68 0.0 0.0 0.00 0.00 0.00 73 1009.0
20260905003019 68 0.0 0.0 0.00 0.00 0.00 72 1009.1
20260905002017 69 0.0 0.0 0.00 0.00 0.00 72 1009.1
20260905001032 69 0.0 0.0 0.00 0.00 0.00 73 1008.9
20260905000037 70 0.0 0.0 0.00 0.00 0.00 67 1008.7
20260904235020 70 0.0 0.0 0.00 0.00 0.00 66 1008.4
20260904234024 71 0.0 0.0 0.00 0.00 0.00 66 1008.4
20260904233027 72 0.0 0.0 0.00 0.00 0.00 64 1008.4
20260904232050 73 0.0 0.0 0.00 0.00 0.00 63 1008.4
20260904231016 74 0.0 0.0 0.00 0.00 0.00 63 1008.3
20260904230019 75 0.0 0.0 0.00 0.00 0.00 62 1008.4
20260904225022 75 0.0 0.0 0.00 0.00 0.00 63 1008.4
20260904224045 76 0.0 0.0 0.00 0.00 0.00 60 1008.2
20260904223029 78 0.0 0.0 0.00 0.00 0.00 59 1008.1
20260904222052 79 0.0 0.0 0.00 0.00 0.00 56 1007.9
20260904221017 79 0.0 0.0 0.00 0.00 0.00 51 1008.0
20260904220021 80 0.0 0.0 0.00 0.00 0.00 50 1007.9
20260904215024 80 0.0 0.0 0.00 0.00 0.00 48 1007.9
20260904214027 83 0.0 2.0 0.00 0.00 0.00 45 1008.1
20260904213031 83 338 0.0 1.0 0.00 0.00 0.00 46 1008.1
20260904212016 83 0.0 2.0 0.00 0.00 0.00 47 1008.1
20260904211019 84 0.0 2.0 0.00 0.00 0.00 46 1008.1
20260904210022 85 217 1.0 6.0 0.00 0.00 0.00 44 1007.9
20260904205019 85 0.0 0.0 0.00 0.00 0.00 46 1007.9
20260904204017 83 0.0 0.0 0.00 0.00 0.00 48 1008.0
20260904203032 82 0.0 0.0 0.00 0.00 0.00 46 1008.1
20260904202017 82 0.0 0.0 0.00 0.00 0.00 45 1008.1
20260904201021 83 210 1.0 3.0 0.00 0.00 0.00 47 1007.8
20260904200024 84 0.0 1.0 0.00 0.00 0.00 47 1008.0
20260904195027 84 0.0 0.0 0.00 0.00 0.00 49 1007.7
20260904194030 85 0.0 0.0 0.00 0.00 0.00 46 1007.7
20260904193016 87 0.0 5.0 0.00 0.00 0.00 42 1007.7
20260904192039 89 90 1.0 5.0 0.00 0.00 0.00 41 1007.7
20260904191022 88 338 0.0 5.0 0.00 0.00 0.00 41 1007.8
20260904190026 87 203 2.0 10.0 0.00 0.00 0.00 41 1008.0
20260904185029 86 0.0 1.0 0.00 0.00 0.00 42 1008.0
20260904184052 85 180 0.0 3.0 0.00 0.00 0.00 44 1008.0
20260904183037 86 204 2.0 6.0 0.00 0.00 0.00 43 1008.0
20260904182041 87 228 1.0 4.0 0.00 0.00 0.00 43 1007.9
20260904181024 86 203 1.0 6.0 0.00 0.00 0.00 45 1008.0
20260904180027 85 270 0.0 2.0 0.00 0.00 0.00 46 1008.1
20260904175031 86 158 1.0 6.0 0.00 0.00 0.00 46 1008.0
20260904174036 86 0.0 4.0 0.00 0.00 0.00 50 1008.0
20260904173019 85 248 0.0 2.0 0.00 0.00 0.00 51 1008.2
20260904172022 82 0.0 0.0 0.00 0.00 0.00 55 1008.4
20260904171040 84 203 0.0 1.0 0.00 0.00 0.00 51 1008.4
20260904170017 84 126 1.0 5.0 0.00 0.00 0.00 51 1008.5
20260904165032 84 0.0 0.0 0.00 0.00 0.00 53 1008.4
20260904164018 84 248 0.0 1.0 0.00 0.00 0.00 52 1008.5
20260904163021 82 269 1.0 5.0 0.00 0.00 0.00 53 1008.6
20260904162024 82 281 2.0 6.0 0.00 0.00 0.00 54 1008.6
20260904161028 82 1.0 2.0 0.00 0.00 0.00 54 1008.8
20260904160051 82 16 1.0 8.0 0.00 0.00 0.00 56 1008.8
20260904155016 81 0.0 1.0 0.00 0.00 0.00 57 1009.0
20260904154019 80 236 1.0 6.0 0.00 0.00 0.00 60 1009.0
20260904153023 80 0.0 2.0 0.00 0.00 0.00 62 1009.0
20260904152026 80 113 0.0 2.0 0.00 0.00 0.00 61 1009.0
20260904151029 79 0.0 0.0 0.00 0.00 0.00 63 1009.1
20260904150033 79 288 0.0 3.0 0.00 0.00 0.00 65 1009.2
20260904145038 78 0.0 0.0 0.00 0.00 0.00 67 1009.4
20260904144021 77 0.0 0.0 0.00 0.00 0.00 69 1009.4
20260904143024 76 225 1.0 5.0 0.00 0.00 0.00 70 1009.4
20260904142028 75 0.0 4.0 0.00 0.00 0.00 72 1009.5
20260904141031 74 0.0 0.0 0.00 0.00 0.00 74 1009.6
20260904140036 73 203 0.0 4.0 0.00 0.00 0.00 75 1009.7
20260904135019 72 0.0 0.0 0.00 0.00 0.00 80 1009.5
20260904134023 71 0.0 0.0 0.00 0.00 0.00 82 1009.6
20260904133040 69 0.0 0.0 0.00 0.00 0.00 89 1009.7
20260904132038 68 0.0 0.0 0.00 0.00 0.00 91 1009.6
20260904131033 68 338 0.0 1.0 0.00 0.00 0.00 93 1009.7
20260904130018 68 0.0 0.0 0.00 0.00 0.00 95 1009.8
20260904125041 68 0.0 0.0 0.00 0.00 0.00 96 1009.6
20260904124024 67 0.0 0.0 0.00 0.00 0.00 98 1009.7
20260904123028 67 0.0 0.0 0.00 0.00 0.00 99 1009.6
20260904122031 67 0.0 0.0 0.00 0.00 0.00 99 1009.6
20260904121016 66 0.0 0.0 0.00 0.00 0.00 99 1009.5
20260904120020 66 0.0 0.0 0.00 0.00 0.00 99 1009.6
20260904115023 66 0.0 0.0 0.00 0.00 0.00 99 1009.6
20260904114046 66 0.0 0.0 0.00 0.00 0.00 99 1009.7
20260904113030 66 0.0 0.0 0.00 0.00 0.00 99 1009.6
20260904112015 66 0.0 0.0 0.00 0.00 0.00 99 1009.6
20260904111018 66 0.0 0.0 0.00 0.00 0.00 99 1009.5
20260904110022 65 0.0 0.0 0.00 0.00 0.00 99 1009.4
20260904105025 65 0.0 0.0 0.00 0.00 0.00 99 1009.2
20260904104028 65 0.0 0.0 0.00 0.00 0.00 99 1009.4
20260904103052 65 0.0 0.0 0.00 0.00 0.00 99 1009.4
20260904102017 65 0.0 0.0 0.00 0.00 0.00 99 1009.5
20260904101020 65 0.0 0.0 0.00 0.00 0.00 99 1009.3
20260904100023 65 0.0 0.0 0.00 0.00 0.00 99 1009.3
20260904095020 65 0.0 0.0 0.00 0.00 0.00 99 1009.4
20260904094018 65 0.0 0.0 0.00 0.00 0.00 99 1009.4
20260904093015 65 0.0 0.0 0.00 0.00 0.00 99 1009.4
20260904092018 65 0.0 0.0 0.00 0.00 0.00 99 1009.3
20260904091022 65 0.0 0.0 0.00 0.00 0.00 99 1009.1
20260904090025 65 0.0 0.0 0.00 0.00 0.00 99 1009.3
20260904085028 65 0.0 0.0 0.00 0.00 0.00 98 1009.4
20260904084031 65 0.0 0.0 0.00 0.00 0.00 98 1009.3
20260904083017 65 0.0 0.0 0.00 0.00 0.00 98 1009.4
20260904082040 65 0.0 0.0 0.00 0.00 0.00 98 1009.4
20260904081023 65 0.0 0.0 0.00 0.00 0.00 98 1009.4
20260904080047 65 0.0 0.0 0.00 0.00 0.00 98 1009.4
20260904075030 65 0.0 0.0 0.00 0.00 0.00 98 1009.4
20260904074016 65 0.0 0.0 0.00 0.00 0.00 97 1009.5
20260904073019 65 0.0 0.0 0.00 0.00 0.00 97 1009.7
20260904072022 65 0.0 0.0 0.00 0.00 0.00 97 1009.8
20260904071025 65 0.0 0.0 0.00 0.00 0.00 96 1009.6
20260904070049 65 0.0 0.0 0.00 0.00 0.00 96 1009.8
20260904065032 65 0.0 0.0 0.00 0.00 0.00 96 1009.8
20260904064017 65 0.0 0.0 0.00 0.00 0.00 96 1009.9
20260904063020 65 0.0 0.0 0.00 0.00 0.00 96 1010.0
20260904062024 65 0.0 0.0 0.00 0.00 0.00 96 1010.2
20260904061021 65 0.0 0.0 0.00 0.00 0.00 96 1010.5
20260904060018 65 0.0 0.0 0.00 0.00 0.00 95 1010.4
20260904055016 65 0.0 0.0 0.00 0.00 0.00 95 1010.6
20260904054019 65 0.0 0.0 0.00 0.00 0.00 95 1010.6
20260904053022 65 0.0 0.0 0.00 0.00 0.00 95 1010.7
20260904052026 65 0.0 0.0 0.00 0.00 0.00 95 1010.8
20260904051029 65 0.0 0.0 0.00 0.00 0.00 95 1010.9
20260904050032 65 0.0 0.0 0.00 0.00 0.00 95 1010.7
20260904045017 65 0.0 0.0 0.00 0.00 0.00 94 1010.8
20260904044041 65 0.0 0.0 0.00 0.00 0.00 94 1011.0
20260904043024 65 0.0 0.0 0.00 0.00 0.00 94 1011.1
20260904042027 65 0.0 0.0 0.00 0.00 0.00 93 1011.1
20260904041031 65 0.0 0.0 0.00 0.00 0.00 93 1011.2
20260904040016 65 0.0 0.0 0.00 0.00 0.00 93 1011.5
20260904035040 65 0.0 0.0 0.00 0.00 0.00 93 1011.4
20260904034022 65 0.0 0.0 0.00 0.00 0.00 93 1011.4
20260904033046 65 0.0 0.0 0.00 0.00 0.00 92 1011.5
20260904032029 65 0.0 0.0 0.00 0.00 0.00 92 1011.6
20260904031032 65 0.0 0.0 0.00 0.00 0.00 92 1011.8
20260904030058 65 0.0 0.0 0.00 0.00 0.00 92 1011.6
20260904025041 65 0.0 0.0 0.00 0.00 0.00 92 1011.9
20260904024024 65 0.0 0.0 0.00 0.00 0.00 91 1011.7
20260904023021 65 0.0 0.0 0.00 0.00 0.00 91 1011.7
20260904022018 65 0.0 0.0 0.00 0.00 0.00 91 1011.7